STARLINK-35119 (65508 NORAD) Tracking and Keplerian Element Data

This shows tracking and keplerian element data for the satellite.

Feedback or suggestion? Click here.




ElementValue
Catalog65508
NameSTARLINK-35119
Epoch Orbit1637
Epoch Day354.01712391
Epoch Year2025
RAAN284.4979
Inclination53.1603
Eccentricity0.000119
Argument of Perigee258.0281
Mean Anonmoly102.0591
Mean Motion15.40218129
Decay Rate0.00062923
L11 65508U 25198S 25354.01712391 .00062923 00000+0 15395-2 0 9998
L22 65508 53.1603 284.4979 0001190 258.0281 102.0591 15.40218129 16372



Live tracking and technical data element details for STARLINK-35119 (NORAD 65508). STARLINK-35119 can be tracked NOW for your location showing map with azimuth and elevation plus other details from your city location.







IsCatalogInMostPopularTable: catalog: 65508, numindb: 3
Update: records affected: 1



GetName: 65508 STARLINK-35119

Hit Count: updated at: Mon, 09 Feb 2026 09:28:20 GMT